When you browse on this site, cookies collect data to enhance your experience and personalize the content and advertising you see.
Visit our Privacy Policy to learn more. By continuing to use the site, you agree to this use of cookies and data.
  • In Czech Republic
  • List of Countries
  • For 7 days
  • Water Temperature
  • Weather Map
  • Weather Widgets
  • user-avatar
    Login

    Hourly Weather Tamra

    Today, 4 June, Thursday

    Time Temperature Precipitation Wind Pressure Humidity
    00:00 +17°C° 0 mm 0 mps 748 mmHg 77%
    01:00 +16°C° 0 mm 0 mps 748 mmHg 78%
    02:00 +16°C° 0 mm 0 mps 747 mmHg 82%
    03:00 +16°C° 0 mm 0 mps 748 mmHg 81%
    04:00 +18°C° 0 mm 1 mps 748 mmHg 81%
    05:00 +18°C° 0 mm 1 mps 748 mmHg 80%
    06:00 +20°C° 0 mm 1 mps 748 mmHg 67%
    07:00 +23°C° 0 mm 1 mps 749 mmHg 54%
    08:00 +25°C° 0 mm 1 mps 749 mmHg 41%
    09:00 +27°C° 0 mm 2 mps 749 mmHg 38%
    10:00 +28°C° 0 mm 3 mps 749 mmHg 35%
    11:00 +30°C° 0 mm 4 mps 750 mmHg 33%
    12:00 +30°C° 0 mm 4 mps 749 mmHg 34%
    13:00 +30°C° 0 mm 5 mps 749 mmHg 35%
    14:00 +30°C° 0 mm 5 mps 749 mmHg 37%
    15:00 +29°C° 0 mm 5 mps 749 mmHg 39%
    16:00 +28°C° 0 mm 5 mps 749 mmHg 41%
    17:00 +28°C° 0 mm 5 mps 749 mmHg 43%
    18:00 +26°C° 0 mm 4 mps 749 mmHg 49%
    19:00 +23°C° 0 mm 4 mps 749 mmHg 54%
    20:00 +22°C° 0 mm 3 mps 749 mmHg 60%
    21:00 +21°C° 0 mm 3 mps 750 mmHg 60%
    22:00 +21°C° 0 mm 3 mps 750 mmHg 59%
    23:00 +21°C° 0 mm 3 mps 750 mmHg 59%

    Tomorrow, 5 June, Friday

    Time Temperature Precipitation Wind Pressure Humidity
    00:00 +20°C° 0 mm 3 mps 750 mmHg 62%
    01:00 +20°C° 0 mm 2 mps 749 mmHg 65%
    02:00 +19°C° 0 mm 2 mps 749 mmHg 69%
    03:00 +19°C° 0 mm 2 mps 749 mmHg 69%
    04:00 +19°C° 0 mm 2 mps 750 mmHg 70%
    05:00 +19°C° 0 mm 2 mps 750 mmHg 70%
    06:00 +21°C° 0 mm 2 mps 750 mmHg 59%
    07:00 +25°C° 0 mm 1 mps 750 mmHg 49%
    08:00 +28°C° 0 mm 1 mps 750 mmHg 38%
    09:00 +29°C° 0 mm 2 mps 750 mmHg 37%
    10:00 +30°C° 0 mm 3 mps 750 mmHg 35%
    11:00 +33°C° 0 mm 4 mps 750 mmHg 33%
    12:00 +33°C° 0 mm 4 mps 750 mmHg 33%
    13:00 +33°C° 0 mm 5 mps 749 mmHg 33%
    14:00 +33°C° 0 mm 5 mps 749 mmHg 33%
    15:00 +32°C° 0 mm 6 mps 748 mmHg 35%
    16:00 +30°C° 0 mm 6 mps 748 mmHg 36%
    17:00 +30°C° 0 mm 6 mps 748 mmHg 37%
    18:00 +28°C° 0 mm 5 mps 748 mmHg 42%
    19:00 +26°C° 0 mm 5 mps 748 mmHg 46%
    20:00 +23°C° 0 mm 4 mps 748 mmHg 51%
    21:00 +24°C° 0 mm 3 mps 748 mmHg 52%
    22:00 +22°C° 0 mm 3 mps 748 mmHg 54%
    23:00 +22°C° 0 mm 3 mps 748 mmHg 55%

    Day after tomorrow, 6 June, Saturday

    Time Temperature Precipitation Wind Pressure Humidity
    00:00 +21°C° 0 mm 2 mps 748 mmHg 57%
    01:00 +21°C° 0 mm 2 mps 748 mmHg 59%
    02:00 +20°C° 0 mm 2 mps 748 mmHg 61%
    03:00 +20°C° 0 mm 2 mps 748 mmHg 60%
    04:00 +21°C° 0 mm 1 mps 748 mmHg 59%
    05:00 +21°C° 0 mm 1 mps 748 mmHg 59%
    06:00 +24°C° 0 mm 1 mps 748 mmHg 51%
    07:00 +27°C° 0 mm 1 mps 749 mmHg 44%
    08:00 +30°C° 0 mm 1 mps 749 mmHg 36%
    09:00 +31°C° 0 mm 2 mps 749 mmHg 36%
    10:00 +33°C° 0 mm 3 mps 749 mmHg 36%
    11:00 +34°C° 0 mm 4 mps 748 mmHg 36%
    12:00 +35°C° 0 mm 4 mps 748 mmHg 35%
    13:00 +35°C° 0 mm 4 mps 748 mmHg 34%
    14:00 +35°C° 0 mm 5 mps 747 mmHg 34%
    15:00 +34°C° 0 mm 5 mps 747 mmHg 36%
    16:00 +33°C° 0 mm 4 mps 747 mmHg 38%
    17:00 +32°C° 0 mm 4 mps 746 mmHg 41%
    18:00 +29°C° 0 mm 4 mps 746 mmHg 47%
    19:00 +26°C° 0 mm 4 mps 746 mmHg 53%
    20:00 +24°C° 0 mm 3 mps 746 mmHg 60%
    21:00 +24°C° 0 mm 3 mps 746 mmHg 60%
    22:00 +23°C° 0 mm 2 mps 746 mmHg 61%
    23:00 +23°C° 0 mm 2 mps 746 mmHg 61%

    7 June, Sunday

    Time Temperature Precipitation Wind Pressure Humidity
    00:00 +22°C° 0 mm 1 mps 746 mmHg 62%
    01:00 +22°C° 0 mm 1 mps 746 mmHg 63%
    02:00 +21°C° 0 mm 1 mps 746 mmHg 65%
    03:00 +21°C° 0 mm 1 mps 746 mmHg 66%
    04:00 +21°C° 0 mm 1 mps 746 mmHg 67%
    05:00 +21°C° 0 mm 1 mps 746 mmHg 67%
    06:00 +24°C° 0 mm 1 mps 746 mmHg 57%
    07:00 +27°C° 0 mm 1 mps 746 mmHg 47%
    08:00 +30°C° 0 mm 1 mps 747 mmHg 37%
    09:00 +31°C° 0 mm 2 mps 747 mmHg 36%
    10:00 +33°C° 0 mm 3 mps 746 mmHg 36%
    11:00 +35°C° 0 mm 4 mps 746 mmHg 36%
    12:00 +35°C° 0 mm 4 mps 746 mmHg 35%
    13:00 +35°C° 0 mm 5 mps 746 mmHg 34%
    14:00 +35°C° 0 mm 5 mps 745 mmHg 34%
    15:00 +34°C° 0 mm 5 mps 745 mmHg 36%
    16:00 +32°C° 0 mm 5 mps 745 mmHg 38%
    17:00 +30°C° 0 mm 5 mps 745 mmHg 41%
    18:00 +28°C° 0 mm 4 mps 745 mmHg 47%
    19:00 +26°C° 0 mm 4 mps 745 mmHg 53%
    20:00 +24°C° 0 mm 3 mps 746 mmHg 60%
    21:00 +24°C° 0 mm 3 mps 746 mmHg 62%
    22:00 +23°C° 0 mm 2 mps 745 mmHg 63%
    23:00 +21°C° 0 mm 2 mps 745 mmHg 65%

    8 June, Monday

    Time Temperature Precipitation Wind Pressure Humidity
    00:00 +22°C° 0 mm 1 mps 745 mmHg 64%
    01:00 +22°C° 0 mm 1 mps 745 mmHg 64%
    02:00 +22°C° 0 mm 1 mps 745 mmHg 63%
    03:00 +22°C° 0 mm 1 mps 745 mmHg 64%
    04:00 +21°C° 0 mm 1 mps 745 mmHg 65%
    05:00 +21°C° 0 mm 1 mps 745 mmHg 66%
    06:00 +24°C° 0 mm 1 mps 745 mmHg 58%
    07:00 +26°C° 0 mm 2 mps 745 mmHg 50%
    08:00 +28°C° 0 mm 2 mps 746 mmHg 42%
    09:00 +30°C° 0 mm 3 mps 746 mmHg 38%
    10:00 +32°C° 0 mm 4 mps 746 mmHg 35%
    11:00 +34°C° 0 mm 4 mps 746 mmHg 31%
    12:00 +33°C° 0 mm 5 mps 745 mmHg 33%
    13:00 +33°C° 0 mm 5 mps 745 mmHg 36%
    14:00 +32°C° 0 mm 6 mps 745 mmHg 38%
    15:00 +30°C° 0 mm 5 mps 745 mmHg 43%
    16:00 +29°C° 0 mm 5 mps 745 mmHg 48%
    17:00 +28°C° 0 mm 4 mps 745 mmHg 52%
    18:00 +26°C° 0 mm 3 mps 745 mmHg 59%
    19:00 +25°C° 0 mm 3 mps 745 mmHg 66%
    20:00 +23°C° 0 mm 2 mps 745 mmHg 72%
    21:00 +23°C° 0 mm 2 mps 745 mmHg 72%
    22:00 +21°C° 0 mm 2 mps 745 mmHg 71%
    23:00 +21°C° 0 mm 2 mps 745 mmHg 71%

    9 June, Tuesday

    Time Temperature Precipitation Wind Pressure Humidity
    00:00 +21°C° 0 mm 2 mps 745 mmHg 73%
    01:00 +20°C° 0 mm 2 mps 745 mmHg 75%
    02:00 +20°C° 0 mm 2 mps 745 mmHg 78%
    03:00 +20°C° 0 mm 2 mps 745 mmHg 79%
    04:00 +21°C° 0 mm 1 mps 745 mmHg 80%
    05:00 +21°C° 0 mm 1 mps 745 mmHg 82%
    06:00 +23°C° 0 mm 1 mps 746 mmHg 71%
    07:00 +25°C° 0 mm 2 mps 746 mmHg 61%
    08:00 +27°C° 0 mm 2 mps 746 mmHg 51%
    09:00 +29°C° 0 mm 3 mps 746 mmHg 47%
    10:00 +30°C° 0 mm 3 mps 746 mmHg 42%
    11:00 +32°C° 0 mm 4 mps 747 mmHg 38%
    12:00 +32°C° 0 mm 4 mps 746 mmHg 39%
    13:00 +32°C° 0 mm 5 mps 746 mmHg 39%
    14:00 +30°C° 0 mm 5 mps 746 mmHg 39%
    15:00 +29°C° 0 mm 5 mps 746 mmHg 43%
    16:00 +29°C° 0 mm 4 mps 746 mmHg 46%
    17:00 +28°C° 0 mm 4 mps 746 mmHg 49%
    18:00 +26°C° 0 mm 3 mps 746 mmHg 56%
    19:00 +24°C° 0 mm 3 mps 746 mmHg 64%
    20:00 +21°C° 0 mm 2 mps 746 mmHg 72%
    21:00 +21°C° 0 mm 2 mps 746 mmHg 73%
    22:00 +21°C° 0 mm 1 mps 746 mmHg 74%
    23:00 +21°C° 0 mm 1 mps 746 mmHg 75%
    Show more